Find Starlink 6182

NORAD ID: 56878 Int'l Des: 2023-083 Owner: SPXS Country: US Constellation: starlink operational
LEOCIRCULAR

Live-Position

3D-Globus wird geladen...

Über Starlink 6182

Beschreibung wird geladen...

Nächste Überflüge

Passes for default location (London). Set your location on the main map for personalized predictions.

Höhenverlauf

Loading altitude history...

Zweizeiliger Elementsatz

1 56878U 23083C 26126.00370926 .00000873 00000-0 42228-4 0 9994
2 56878 43.0032 121.7035 0001139 271.4476 88.6245 15.26743512160390
Epoch: 6. Mai 2026 • Age: 17 hours

Aktueller Status

Höhe 486.4 km
Geschwindigkeit 7.62 km/s
Subsatellitenpunkt -6.94°S, 168.56°W
Startdatum 12. Juni 2023
Alter 2.8 years
Typ internet

Technische Details

Klassifizierung Payload
Masse 305.00 kg
Trockenmasse 290.00 kg
Gesamtmasse 305.00 kg
Länge 0.20 m
Durchmesser 2.80 m
Spannweite 9.00 m
Form Box + pan
Hersteller SPXS
Bus-Typ Starlink
Phasenstatus In Orbit
Besitzer/Staat SPXS/US

Most Searched